[[{"header":{"parameterUnit":"m.s-1","parameterCategory":1,"la1":30.2991,"la2":30.254,"lo1":-89.0895,"lo2":-89.0444,"dy":0.0017,"dx":0.0017,"nx":28,"ny":28,"refTime":"2024-04-05T03:00:00:Z","depth":0,"parameterNumber":2,"parameterNumberName":"U-component_of_WINDS"},"data":[0,0,0,0,0,0,0,0,0,0,0,0,0,0,0,0,0,0,0,0,0,0,0,0,0,0,0,0,0,0,0,0,0,0,0,0,0,0,0,0,0,0,0,0,0,0,0,0,0,0,0,0,0,0,0,0,0,0,1.0194,1.0194,0,1.0247,1.0248,1.0248,1.0205,1.0203,1.0201,1.0199,1.0256,1.0259,1.0262,0,0,0,0,0,0,0,0,0,0,0,0,0,1.0057,1.0059,1.0193,1.0194,1.0195,1.0247,1.0248,1.0248,1.0205,1.0203,1.02,1.0198,1.0255,1.0259,1.0263,0,0,0,0,0,0,0,0,0,0,0,0,0,1.0114,1.006,1.0193,1.0179,1.0179,1.0247,1.0248,1.0249,1.0205,1.0203,1.02,1.0197,1.0254,1.0259,1.0263,1.0349,0,0,1.0278,1.028,0,0,0,0,0,0,0,0,1.0111,1.0119,1.0181,1.018,1.018,1.0216,1.022,1.0282,1.0206,1.0195,1.0199,1.0196,1.0245,1.0251,1.0267,1.0352,1.0354,1.0279,1.0282,1.0284,1.0285,0,0,0,0,0,0,0,1.0107,1.0116,1.0215,1.0182,1.0181,1.0171,1.0176,1.0232,1.0235,1.0196,1.0193,1.02,1.0244,1.0262,1.0268,1.0355,1.0278,1.0283,1.0286,1.0288,1.0515,1.0518,0,0,0,0,0,0,1.0104,1.0113,1.0213,1.0216,1.0138,1.0176,1.0182,1.0207,1.0235,1.0236,1.0202,1.0198,1.0255,1.0262,1.027,1.0374,1.0284,1.0288,1.0291,1.0512,1.0516,1.0519,0,0,0,0,0,0,1.0101,1.0113,1.0211,1.0164,1.0176,1.0181,1.0211,1.021,1.0228,1.0239,1.024,1.022,1.0253,1.0263,1.033,1.0375,1.029,1.0295,1.0509,1.0513,1.0518,1.0582,0,0,0,0,0,0,1.0097,1.0112,1.0144,1.0165,1.0178,1.027,1.0213,1.0213,1.0236,1.023,1.0256,1.0257,1.0252,1.0323,1.0335,1.038,1.0299,1.0505,1.0511,1.0516,1.0576,1.0588,1.0598,0,0,0,0,0,1.0093,1.016,1.0146,1.0158,1.0218,1.0272,1.028,1.0272,1.024,1.0272,1.028,1.0256,1.0368,1.033,1.0343,1.0391,1.0502,1.0509,1.0516,1.057,1.0585,1.0598,0,0,0,0,0,0,1.0144,1.0162,1.0147,1.0223,1.0246,1.0265,1.0305,1.0288,1.0321,1.0315,1.0304,1.031,1.0382,1.0393,1.035,1.0476,1.043,1.044,1.0467,1.0481,1.0493,1.0489,1.0303,0,0,0,0,0,1.0164,1.0206,1.0219,1.0285,1.0298,1.03,1.0323,1.0315,1.0339,1.0349,1.0361,1.0387,1.0428,1.0455,1.0493,1.0576,1.0583,1.0616,1.0627,1.0637,1.0646,1.0694,1.0709,1.0543,1.0543,1.0542,0,0,1.0206,1.0221,1.0248,1.0296,1.0313,1.0358,1.0308,1.0357,1.0391,1.0356,1.0421,1.0431,1.0459,1.0536,1.057,1.0547,1.0693,1.0646,1.0653,1.0657,1.0703,1.0719,1.0733,1.0547,1.0547,1.0546,0,0,1.0306,1.0321,1.0378,1.0397,1.0424,1.0425,1.0439,1.046,1.0466,1.053,1.0506,1.0547,1.0617,1.0638,1.0658,1.0768,1.0749,1.0781,1.0842,1.0888,1.0902,1.0913,1.0955,1.097,1.079,1.079,1.079,0,1.0356,1.0421,1.041,1.0462,1.0484,1.0455,1.0515,1.0533,1.0571,1.0588,1.0562,1.0651,1.0667,1.0749,1.0777,1.0793,1.081,1.0779,1.09,1.0912,1.0923,1.0963,1.0978,1.0794,1.0793,1.0793,1.0793,0,1.0482,1.0528,1.0571,1.0609,1.0636,1.0691,1.069,1.0719,1.0709,1.0714,1.0782,1.08,1.0843,1.0861,1.0852,1.0943,1.0929,1.0901,1.0855,1.0943,1.098,1.0995,1.08,1.0798,1.0797,1.0796,0,0,1.0616,1.0648,1.0664,1.0682,1.071,1.0746,1.0801,1.0842,1.0869,1.0896,1.0943,1.1004,1.098,1.1002,1.0995,1.1036,1.1125,1.1004,1.1005,1.1028,1.1231,1.1253,1.127,1.1112,1.1115,1.1117,1.1229,0,1.0719,1.0813,1.0806,1.0896,1.094,1.0913,1.0961,1.0985,1.0991,1.103,1.1036,1.1081,1.1044,1.1058,1.1097,1.1106,1.1166,1.1098,1.1158,1.116,1.1154,1.1289,1.1312,1.1417,1.1243,1.1246,1.1248,0,1.0852,1.0885,1.0979,1.1003,1.1021,1.1064,1.1102,1.1139,1.1166,1.1168,1.1194,1.1181,1.1238,1.1188,1.1268,1.1222,1.1246,1.1254,1.1258,1.1265,1.1211,1.1302,1.145,1.1467,1.127,1.1268,1.1267,0,1.0944,1.1011,1.1077,1.1093,1.1121,1.1152,1.1166,1.119,1.1216,1.125,1.1267,1.1307,1.133,1.1362,1.136,1.1324,1.1442,1.1392,1.1447,1.1448,1.1475,1.1473,1.1631,1.1487,1.1486,1.1486,1.1486,0,1.1061,1.112,1.1119,1.1159,1.1226,1.1217,1.1284,1.1294,1.1316,1.1359,1.1338,1.138,1.1374,1.1416,1.1415,1.1483,1.1493,1.1497,1.1497,1.1501,1.1501,1.1518,1.1511,1.149,1.1489,1.1489,1.1488,0,1.1175,1.1176,1.1246,1.1268,1.1275,1.1323,1.1342,1.1382,1.1386,1.1441,1.1454,1.1462,1.151,1.1512,1.1567,1.1567,1.1651,1.1641,1.1642,1.1641,1.1697,1.1692,1.1873,1.1897,1.1735,1.1736,1.1737,0,1.1251,1.1296,1.1323,1.135,1.1366,1.141,1.1437,1.143,1.1459,1.1494,1.153,1.1577,1.1614,1.1694,1.1705,1.1749,1.1741,1.1801,1.1747,1.1751,1.1745,1.1743,1.1749,1.1812,1.1814,1.1816,1.1817,0,1.1386,1.1385,1.1424,1.1464,1.1496,1.1527,1.1556,1.158,1.1578,1.1612,1.1661,1.169,1.1748,1.1796,1.1838,1.1853,1.1836,1.1833,1.1849,1.1854,1.1854,1.1858,1.1673,1.183,1.1828,1.1828,1.1827,1.1826,1.1485,1.1525,1.1551,1.1595,1.1616,1.1644,1.1683,1.1693,1.1734,1.178,1.1774,1.183,1.1858,1.1913,1.1932,1.1977,1.1956,1.1978,1.1984,1.199,1.1997,1.1845,1.1984,1.1984,1.1983,1.1983,1.1983,0,1.1622,1.1637,1.1678,1.1719,1.1755,1.1735,1.1766,1.1798,1.1847,1.1874,1.1912,1.197,1.2017,1.2032,1.2078,1.2111,1.2104,1.2123,1.2122,1.2127,1.2012,1.1995,1.2128,1.2128,1.2128,1.2128,1.2128,1.2128,1.1697,1.1764,1.1766,1.1845,1.186,1.1914,1.1934,1.1961,1.1982,1.2049,1.2087,1.2096,1.212,1.2167,1.221,1.2213,1.2232,1.2255,1.2256,1.2149,1.2134,1.212,1.2105,1.2259,1.2259,1.2367,1.2368,1.2369]},{"header":{"parameterUnit":"m.s-1","parameterCategory":1,"la1":30.2991,"la2":30.254,"lo1":-89.0895,"lo2":-89.0444,"dy":0.0017,"dx":0.0017,"nx":28,"ny":28,"refTime":"2024-04-05T03:00:00:Z","depth":0,"parameterNumber":3,"parameterNumberName":"V-component_of_WINDS"},"data":[0,0,0,0,0,0,0,0,0,0,0,0,0,0,0,0,0,0,0,0,0,0,0,0,0,0,0,0,0,0,0,0,0,0,0,0,0,0,0,0,0,0,0,0,0,0,0,0,0,0,0,0,0,0,0,0,0,0,-2.6551,-2.6552,0,-2.6599,-2.6599,-2.66,-2.6606,-2.6605,-2.6605,-2.6604,-2.665,-2.6651,-2.6653,0,0,0,0,0,0,0,0,0,0,0,0,0,-2.6464,-2.6466,-2.6551,-2.6552,-2.6552,-2.6599,-2.6599,-2.66,-2.6606,-2.6605,-2.6605,-2.6604,-2.6649,-2.6651,-2.6653,0,0,0,0,0,0,0,0,0,0,0,0,0,-2.6506,-2.6467,-2.6551,-2.6561,-2.6562,-2.6598,-2.6599,-2.66,-2.6606,-2.6605,-2.6604,-2.6604,-2.6648,-2.6651,-2.6653,-2.6682,0,0,-2.6661,-2.6662,0,0,0,0,0,0,0,0,-2.6504,-2.6509,-2.6559,-2.656,-2.6562,-2.6596,-2.6585,-2.6627,-2.6606,-2.6589,-2.6604,-2.6603,-2.6632,-2.6636,-2.6646,-2.6684,-2.6686,-2.6661,-2.6662,-2.6663,-2.6664,0,0,0,0,0,0,0,-2.6501,-2.6507,-2.657,-2.656,-2.6562,-2.6563,-2.6568,-2.6593,-2.6614,-2.6591,-2.6591,-2.6597,-2.6633,-2.6644,-2.6647,-2.6686,-2.6661,-2.6663,-2.6664,-2.6665,-2.6753,-2.6753,0,0,0,0,0,0,-2.6496,-2.6505,-2.6568,-2.6571,-2.6531,-2.6565,-2.657,-2.6585,-2.6613,-2.6617,-2.6597,-2.6597,-2.664,-2.6644,-2.6649,-2.6686,-2.6663,-2.6666,-2.6667,-2.6752,-2.6753,-2.6754,0,0,0,0,0,0,-2.6494,-2.6502,-2.6566,-2.6538,-2.6547,-2.6567,-2.6584,-2.6587,-2.6598,-2.6619,-2.6622,-2.6605,-2.6639,-2.6645,-2.6674,-2.6687,-2.6667,-2.6669,-2.6751,-2.6752,-2.6753,-2.6759,0,0,0,0,0,0,-2.6492,-2.6501,-2.6512,-2.6538,-2.6548,-2.6592,-2.6584,-2.6588,-2.6602,-2.6602,-2.6627,-2.663,-2.6639,-2.6671,-2.6677,-2.669,-2.6671,-2.675,-2.6751,-2.6753,-2.6757,-2.676,-2.6762,0,0,0,0,0,-2.6489,-2.6511,-2.6513,-2.6521,-2.6563,-2.6592,-2.6598,-2.6609,-2.6603,-2.6615,-2.6629,-2.6629,-2.6685,-2.6674,-2.668,-2.6695,-2.6749,-2.6751,-2.6753,-2.6756,-2.6759,-2.6762,0,0,0,0,0,0,-2.6484,-2.6514,-2.6517,-2.6548,-2.6568,-2.6593,-2.6608,-2.6611,-2.6632,-2.6631,-2.6643,-2.6649,-2.6678,-2.6689,-2.6676,-2.6725,-2.6716,-2.672,-2.6717,-2.672,-2.6722,-2.6719,-2.6673,0,0,0,0,0,-2.6487,-2.6509,-2.6534,-2.6559,-2.6569,-2.6587,-2.66,-2.6608,-2.6628,-2.6636,-2.6652,-2.6671,-2.6693,-2.6707,-2.6728,-2.6759,-2.6765,-2.6773,-2.6775,-2.6777,-2.678,-2.6799,-2.6803,-2.676,-2.676,-2.676,0,0,-2.6492,-2.6512,-2.6525,-2.6559,-2.6575,-2.6598,-2.6594,-2.6617,-2.6634,-2.6639,-2.6668,-2.6681,-2.6703,-2.6734,-2.6748,-2.6744,-2.6793,-2.6779,-2.6781,-2.6782,-2.6801,-2.6805,-2.6809,-2.6761,-2.6761,-2.6761,0,0,-2.6514,-2.6531,-2.6555,-2.6572,-2.6597,-2.6609,-2.6615,-2.664,-2.6649,-2.6679,-2.6684,-2.6704,-2.6741,-2.6757,-2.677,-2.6802,-2.6803,-2.6808,-2.682,-2.6839,-2.6842,-2.6845,-2.6858,-2.6862,-2.6811,-2.6811,-2.6811,0,-2.6517,-2.6553,-2.6566,-2.6591,-2.6606,-2.6613,-2.6638,-2.6653,-2.6683,-2.6694,-2.6689,-2.6738,-2.6753,-2.6789,-2.6797,-2.6807,-2.6814,-2.6805,-2.6841,-2.6844,-2.6847,-2.6859,-2.6864,-2.6811,-2.6811,-2.6811,-2.6811,0,-2.6556,-2.6581,-2.6597,-2.6628,-2.6646,-2.667,-2.6687,-2.6702,-2.6709,-2.6722,-2.6753,-2.6772,-2.6798,-2.6807,-2.6812,-2.6844,-2.6841,-2.6839,-2.683,-2.6852,-2.6863,-2.6868,-2.6812,-2.6812,-2.6812,-2.6811,0,0,-2.6575,-2.6616,-2.6621,-2.6637,-2.6666,-2.6685,-2.671,-2.6738,-2.6751,-2.6772,-2.6794,-2.6827,-2.6826,-2.6841,-2.6848,-2.6865,-2.689,-2.6861,-2.6861,-2.6866,-2.6928,-2.693,-2.6935,-2.6892,-2.6893,-2.6893,-2.6927,0,-2.6601,-2.6647,-2.6661,-2.67,-2.6724,-2.6732,-2.6754,-2.6774,-2.6787,-2.6809,-2.6823,-2.6847,-2.6843,-2.6852,-2.6869,-2.6884,-2.6903,-2.6881,-2.6912,-2.6913,-2.6907,-2.6941,-2.6943,-2.6974,-2.6931,-2.6932,-2.6933,0,-2.6637,-2.6662,-2.6703,-2.6732,-2.6743,-2.6762,-2.679,-2.681,-2.6834,-2.6843,-2.6861,-2.6868,-2.6895,-2.6885,-2.6923,-2.6908,-2.6921,-2.6931,-2.6932,-2.6936,-2.6924,-2.6947,-2.6983,-2.6988,-2.6939,-2.6939,-2.6938,0,-2.6649,-2.6691,-2.6723,-2.6735,-2.6769,-2.6783,-2.6798,-2.6821,-2.6838,-2.6861,-2.6872,-2.6898,-2.6912,-2.6932,-2.6946,-2.6937,-2.6983,-2.6974,-2.6991,-2.6991,-2.7,-2.7,-2.7041,-2.7008,-2.7008,-2.7008,-2.7008,0,-2.6677,-2.6702,-2.6729,-2.6748,-2.6777,-2.6793,-2.6821,-2.6836,-2.6857,-2.6879,-2.6887,-2.6908,-2.6925,-2.6948,-2.6959,-2.6989,-2.6995,-2.7003,-2.7006,-2.7003,-2.7002,-2.7012,-2.701,-2.7009,-2.7009,-2.7009,-2.7008,0,-2.6694,-2.6713,-2.6747,-2.6778,-2.6786,-2.6806,-2.6832,-2.6851,-2.6866,-2.6894,-2.6901,-2.6923,-2.6951,-2.6967,-2.7001,-2.7009,-2.7043,-2.7044,-2.7035,-2.7037,-2.7054,-2.7052,-2.7103,-2.7111,-2.7072,-2.7072,-2.7073,0,-2.6711,-2.6731,-2.6765,-2.6781,-2.6797,-2.6822,-2.684,-2.6857,-2.6874,-2.6905,-2.692,-2.6949,-2.6973,-2.7017,-2.7035,-2.7062,-2.7065,-2.7081,-2.7069,-2.7066,-2.7066,-2.7066,-2.7068,-2.7083,-2.7083,-2.7083,-2.7084,0,-2.674,-2.6749,-2.6774,-2.6804,-2.6825,-2.6849,-2.6872,-2.6885,-2.6905,-2.6925,-2.6954,-2.6973,-2.701,-2.7038,-2.7067,-2.7082,-2.7087,-2.7088,-2.7093,-2.7091,-2.7085,-2.709,-2.7042,-2.7086,-2.7086,-2.7086,-2.7086,-2.7086,-2.6758,-2.6778,-2.6805,-2.6834,-2.6854,-2.6876,-2.6896,-2.6914,-2.6939,-2.6972,-2.698,-2.7011,-2.7036,-2.7076,-2.7091,-2.7116,-2.7113,-2.7121,-2.7123,-2.7125,-2.7126,-2.7081,-2.7121,-2.7121,-2.7121,-2.7121,-2.7121,0,-2.6789,-2.6807,-2.6834,-2.6868,-2.6891,-2.6895,-2.6921,-2.694,-2.6968,-2.6992,-2.7016,-2.7051,-2.7079,-2.7101,-2.713,-2.7146,-2.7149,-2.7153,-2.7153,-2.7156,-2.7126,-2.7119,-2.7151,-2.7151,-2.7151,-2.7151,-2.7151,-2.7151,-2.6807,-2.6841,-2.6853,-2.6897,-2.6915,-2.6948,-2.6963,-2.6984,-2.7003,-2.7042,-2.7067,-2.7081,-2.7105,-2.7136,-2.7163,-2.7168,-2.7179,-2.7183,-2.7189,-2.7161,-2.7158,-2.7155,-2.7148,-2.7185,-2.7185,-2.7217,-2.7218,-2.7218]}]]